Find STARLINK-37466

NORAD ID: 70626 Constellation: starlink operational
LEOCIRCULARRETROGRADE

リアルタイム位置

3D地球を読み込み中...

STARLINK-37466について

説明を読み込み中...

次回通過

Passes for default location (London). Set your location on the main map for personalized predictions.

高度履歴

Loading altitude history...

軌道要素

1 70626C 26101P 26126.33798611 .00327930 00000+0 51381-3 0 1262
2 70626 97.2846 339.8810 0010087 258.3061 139.9464 16.03720217 18
Epoch: May 6, 2026 • Age: 18 hours